Погода в Каменоломнях

Россия / Ростовская область     47°39′57″N   40°12′06″E
В апреле 2022 года жителям России запретили посещать сайт meteo.paraplan.net по решению Генеральной прокуратуры. Аудитория сайта уменьшилась в 10 раз. Владельцы сайта не видят смысла в поддержке погодного сервера в таких условиях. Сайт будет закрыт в октябре.
темп.,
°C
ветер,
м/с
пор.,
м/с
влажн.,
%
обл.,
%
осадки,
мм/ч
давл.,
гПа
погр.,
м
25 сентября, вс
вс2500:00+10зюз410755 0.1 1014531
03:00+9зюз512785 0.1 1015453
06:00+9зюз6137861 0.0 1015570
09:00+12зюз813625 0.0 10161139
12:00+16з913448 0.0 10161876
15:00+18з9123541 0.0 10162313
18:00+16з611385 0.0 10161290
21:00+13зюз51247100 0.0 1017605
26 сентября, пн
пн2600:00+12зюз4105273 0.0 1018333
03:00+12зюз3853100 0.0 1018265
06:00+11юз3657100 0.0 1018158
09:00+14юз356997 0.0 1018323
12:00+18зюз575357 0.0 10181434
15:00+19юз5650100 0.3 10171624
18:00+17юз365838 0.0 1017376
21:00+15ююз236879 0.0 101760
27 сентября, вт
вт2700:00+14ююв236987 0.0 101669
03:00+14ююв2563100 0.0 1015118
06:00+13юв2565100 0.0 1014123
09:00+15юв3657100 0.0 1013264
12:00+19юв4545100 0.0 1011541
15:00+21ююв4539100 0.0 1010905
18:00+19юв2342100 0.0 100957
21:00+17юв354383 0.0 100894
28 сентября, ср
ср2800:00+17юв3943100 0.0 1007194
03:00+16юв3866100 0.0 1006176
06:00+16ююв3971100 0.0 1006226
09:00+18ю2456100 0.0 1005236
12:00+23юз5738100 0.0 1005945
15:00+19зюз3674100 0.3 1005331
18:00+18юз39798 0.1 1006377
21:00+17юз3786100 0.1 1007200
29 сентября, чт
чт2900:00+16зюз3787100 0.0 1008187
03:00+15з258690 0.0 1009105
06:00+15зсз118712 0.0 101012
09:00+18с11750 0.4 1012317
12:00+22ю11585 0.0 1012833
15:00+24з014991 0.4 10121357
18:00+21ссв2459100 0.7 1014237
21:00+19св37605 0.7 1015201